[Iaude] MPEC T67: 2023 TV1 [a=1.51,e=0.26,i=24.3,H=23.2]
    mpec at marsden.cfa.harvard.edu 
    mpec at marsden.cfa.harvard.edu
       
    Sat Oct  7 02:03:42 EDT 2023
    
    
  
M.P.E.C. 2023-T67                               Issued 2023 October 7, 06:02 UT
     The Minor Planet Electronic Circulars contain information on unusual
         minor planets, routine data on comets and natural satellites,
         and occasional editorial announcements.  They are published
    on behalf of Division F of the International Astronomical Union by the
          Minor Planet Center, Smithsonian Astrophysical Observatory,
                          Cambridge, MA 02138, U.S.A.
			  
             Prepared using the Tamkin Foundation Computer Network
                              MPC at CFA.HARVARD.EDU
            URL https://www.minorplanetcenter.net/    ISSN 1523-6714
                                    2023 TV1                                    
Observations:
     K23T01V*1C2023 10 04.26897423 24 01.724+35 45 31.25         21.19GVET067G96
     K23T01V 1C2023 10 04.27429623 24 02.185+35 45 04.79         20.92GVET067G96
     K23T01V 1C2023 10 04.28080723 24 02.740+35 44 31.85         21.54GVET067G96
     K23T01V 1C2023 10 04.28604223 24 03.215+35 44 05.71         21.54GVET067G96
     K23T01V  C2023 10 04.32524123 24 06.630+35 40 46.01         21.3 GVET067H01
     K23T01V  C2023 10 04.32989523 24 07.063+35 40 22.56         20.9 GVET067H01
     K23T01V  C2023 10 04.34086623 24 08.070+35 39 26.77         21.7 GVET067H01
     K23T01V  C2023 10 04.34646723 24 08.583+35 38 58.37         20.6 GVET067H01
     K23T01V KC2023 10 04.40057223 24 13.828+35 34 23.84         21.57GVET067I52
     K23T01V KC2023 10 04.40522023 24 14.285+35 33 59.80         21.45GVET067I52
     K23T01V KC2023 10 04.40986923 24 14.706+35 33 35.68         21.12GVET067I52
     K23T01V KC2023 10 04.41451323 24 15.163+35 33 12.24         20.78GVET067I52
     K23T01V KC2023 10 05.11666523 25 36.350+34 33 08.35         20.97GVET067I52
     K23T01V KC2023 10 05.11864223 25 36.509+34 32 58.16         21.53GVET067I52
     K23T01V KC2023 10 05.12063123 25 36.721+34 32 47.87         21.32GVET067I52
     K23T01V  C2023 10 05.25442723 25 49.683+34 21 07.66         21.1 GVET067654
     K23T01V  C2023 10 05.26645523 25 50.805+34 20 04.07         21.1 GVET067654
     K23T01V  C2023 10 07.13574823 29 27.777+31 25 48.71         20.9 GVET067H01
     K23T01V  C2023 10 07.13905323 29 28.125+31 25 29.52         20.6 GVET067H01
     K23T01V  C2023 10 07.15339223 29 29.611+31 24 05.92         20.6 GVET067H01
     K23T01V  C2023 10 07.16086023 29 30.392+31 23 22.23         20.6 GVET067H01
Observer details:
654 Table Mountain Observatory, Wrightwood-PHMC.  Observers N. Evans, P. Choi,
    N. Saini, C. Zhai, R. Trahan, M. Shao.  1.0-m Reflector + CCD.
G96 Mt. Lemmon Survey.  Observer G. J. Leonard.  Measurers E. C. Beshore, D.
    Fay, J. B. Fazekas, D. C. Fuls, A. R. Gibbs, A. D. Grauer, H. Groeller, J.
    K. Hogan, R. A. Kowalski, S. M. Larson, G. J. Leonard, D. Rankin, R. L.
    Seaman, F. C. Shelly, K. W. Wierzchos.  1.5-m reflector + 10K CCD.
H01 Magdalena Ridge Observatory, Socorro.  Observers W. H. Ryan, E. V. Ryan.
    Measurer W. H. Ryan.  2.4-m f/8.9 Ritchey-Chretien + CCD.
I52 Steward Observatory, Mt. Lemmon Station.  Observer D. Rankin.  Measurers
    E. C. Beshore, D. Fay, J. B. Fazekas, D. C. Fuls, A. R. Gibbs, A. D.
    Grauer, H. Groeller, J. K. Hogan, R. A. Kowalski, S. M. Larson, G. J.
    Leonard, D. Rankin, R. L. Seaman, F. C. Shelly, K. W. Wierzchos.  1.0-m
    prime focus + CCD.
Orbital elements:
2023 TV1                                                 Earth MOID = 0.1464 AU
Epoch 2023 Sept. 13.0 TT = JDT 2460200.5                Veres                   
M 325.95759              (2000.0)            P               Q                  
n   0.52867537     Peri.  203.87039     +0.68938107     -0.70524684             
a   1.5147583      Node   203.67967     +0.71309987     +0.70087375             
e   0.2569954      Incl.   24.33091     +0.12744534     -0.10678431             
P   1.86           H   23.20          G   0.15           U   9                  
Residuals in seconds of arc
231004 G96  0.3+  0.0     231004 H01  0.1-  0.2-    231005 I52  0.0   0.0
231004 G96  0.1+  0.1+    231004 I52  0.1+  0.1-    231005 654  0.0   0.1+
231004 G96  0.2-  0.2-    231004 I52  0.2+  0.3-    231005 654  0.0   0.1+
231004 G96  0.1-  0.0     231004 I52  0.2-  0.5-    231007 H01  0.0   0.0
231004 H01  0.1+  0.4-    231004 I52  0.2-  0.1-    231007 H01  0.0   0.0
231004 H01  0.1+  0.2-    231005 I52  0.2+  0.0     231007 H01  0.0   0.1+
231004 H01  0.0   0.3-    231005 I52  0.2-  0.0     231007 H01  0.1+  0.0
Ephemeris:
2023 TV1                 a,e,i = 1.51, 0.26, 24                  q = 1.1255
Date    TT    R. A. (2000) Decl.     Delta      r    Elong.  Phase     V
2023 09 07    22 57 16.2 +52 13 46   0.3889  1.2552   121.4    43.3    23.3
...
2023 09 22    23 07 17.2 +47 24 25   0.2850  1.2098   130.9    38.9    22.4
...
2023 09 30    23 17 04.2 +40 56 35   0.2351  1.1886   138.8    33.7    21.8
...
2023 10 06    23 27 13.4 +33 14 01   0.2031  1.1744   146.3    28.2    21.3
2023 10 07    23 29 09.9 +31 39 16   0.1984  1.1721   147.7    27.1    21.2
2023 10 08    23 31 10.6 +29 59 05   0.1939  1.1700   149.0    26.1    21.2
...
2023 10 14    23 44 44.4 +18 04 49   0.1730  1.1578   156.0    20.5    20.7
...
2023 10 22    00 06 26.3 -01 16 04   0.1646  1.1444   152.9    23.3    20.7
...
2023 11 06    00 53 33.2 -30 46 50   0.2089  1.1287   126.7    44.8    21.8
M. P. C. Staff               (C) Copyright 2023 MPC           M.P.E.C. 2023-T67
    
    
More information about the Iaude
mailing list